This demonstration page uses our WeatherBlox Daily Observations layout. Learn more.

Left ArrowRight Arrow

Hourly Observations for February 14, 2020

Temp ( °F °C ) Dew Point ( °F °C ) Humidity (%) Winds ( mph kmh ) Pressure ( in mb ) Visibility ( mi km ) Precip ( " mm )
12:53 am 00:53 Cloudy 18 -7.8 11 -11.7 74 74 WNW 14 22 30.40 1030 10 16 0.00 0.00
1:53 am 01:53 Cloudy 17 -8.3 9 -12.8 70 70 WNW 14 22 30.43 1030 10 16 N/A
2:06 am 02:06 Mostly Cloudy 16 -8.9 8 -13.3 71 71 WNW 14 22 30.47 1032 10 16 N/A
2:53 am 02:53 Clear 15 -9.4 7 -13.9 70 70 WNW 12 19 30.45 1031 10 16 N/A
3:53 am 03:53 Mostly Clear 13 -10.6 5 -15 70 70 WNW 10 17 30.47 1032 10 16 N/A
4:53 am 04:53 Cloudy 13 -10.6 6 -14.4 74 74 WNW 8 13 30.49 1033 10 16 N/A
5:53 am 05:53 Cloudy 13 -10.6 5 -15 70 70 WNW 9 15 30.52 1033 10 16 N/A
6:53 am 06:53 Cloudy 12 -11.1 3 -16.1 67 67 NW 9 15 30.54 1034 10 16 N/A
7:53 am 07:53 Cloudy 11 -11.7 3 -16.1 70 70 WNW 10 17 30.57 1035 10 16 N/A
8:53 am 08:53 Cloudy 12 -11.1 4 -15.6 70 70 WNW 12 19 30.60 1036 10 16 N/A
9:53 am 09:53 Cloudy 13 -10.6 4 -15.6 67 67 NW 10 17 30.61 1037 10 16 N/A
10:06 am 10:06 Cloudy 14 -10 4 -15.6 64 64 WNW 9 15 30.64 1038 10 16 N/A
10:26 am 10:26 Mostly Cloudy 15 -9.4 5 -15 64 64 WNW 12 19 30.64 1038 10 16 N/A
10:53 am 10:53 Mostly Sunny 15 -9.4 5 -15 64 64 WNW 8 13 30.62 1037 10 16 N/A
11:53 am 11:53 Sunny 19 -7.2 8 -13.3 62 62 W 7 11 30.62 1037 10 16 N/A
12:26 pm 12:26 Mostly Cloudy 20 -6.7 10 -12.2 65 65 VRB 7 11 30.64 1038 10 16 N/A
12:53 pm 12:53 Mostly Cloudy 20 -6.7 9 -12.8 62 62 NNW 7 11 30.62 1037 10 16 N/A
1:53 pm 13:53 Cloudy 21 -6.1 10 -12.2 62 62 undefined N/A 30.61 1037 10 16 N/A
2:13 pm 14:13 Cloudy 21 -6.1 9 -12.8 59 59 WNW 6 9 30.62 1037 10 16 N/A
2:24 pm 14:24 Cloudy 20 -6.7 9 -12.8 62 62 NW 6 9 30.61 1037 10 16 N/A
2:53 pm 14:53 Mostly Cloudy 21 -6.1 8 -13.3 57 57 NNE 5 7 30.59 1036 10 16 N/A
3:01 pm 15:01 Mostly Cloudy 21 -6.1 8 -13.3 57 57 VRB 3 6 30.61 1037 10 16 N/A
3:53 pm 15:53 Cloudy 23 -5 9 -12.8 55 55 NNE 6 9 30.59 1036 10 16 N/A
4:53 pm 16:53 Mostly Cloudy 22 -5.6 8 -13.3 55 55 N N/A 30.60 1036 10 16 N/A
5:53 pm 17:53 Sunny 21 -6.1 6 -14.4 52 52 NW 3 6 30.60 1036 10 16 N/A
6:53 pm 18:53 Clear 20 -6.7 9 -12.8 62 62 N 5 7 30.61 1037 10 16 N/A
7:53 pm 19:53 Clear 17 -8.3 12 -11.1 80 80 ENE 3 6 30.61 1037 10 16 N/A
8:53 pm 20:53 Clear 18 -7.8 11 -11.7 74 74 N N/A 30.60 1036 10 16 N/A
9:53 pm 21:53 Clear 17 -8.3 11 -11.7 77 77 E 3 6 30.59 1036 10 16 N/A
10:53 pm 22:53 Clear 18 -7.8 11 -11.7 74 74 VRB 3 6 30.59 1036 10 16 N/A
11:53 pm 23:53 Clear 19 -7.2 10 -12.2 68 68 N N/A 30.58 1035 10 16 N/A

Powered by AerisWeather